When you browse on this site, cookies collect data to enhance your experience and personalize the content and advertising you see.
Visit our Privacy Policy to learn more. By continuing to use the site, you agree to this use of cookies and data.
  • In Sweden
  • List of Countries
  • For 7 days
  • Water Temperature
  • Weather Map
  • Weather Widgets
  • user-avatar
    Login

    Hourly Weather Lankaran

    Today, 18 September, Wednesday

    Time Temperature Precipitation Wind Pressure Humidity
    00:00 +17°C° 0 mm 2 mps 633 mmHg 49%
    01:00 +16°C° 0 mm 2 mps 633 mmHg 56%
    02:00 +15°C° 0 mm 2 mps 633 mmHg 63%
    03:00 +14°C° 0 mm 2 mps 633 mmHg 70%
    04:00 +14°C° 0 mm 1 mps 633 mmHg 70%
    05:00 +14°C° 0 mm 1 mps 634 mmHg 71%
    06:00 +14°C° 0 mm 1 mps 634 mmHg 71%
    07:00 +16°C° 0 mm 1 mps 635 mmHg 64%
    08:00 +19°C° 0 mm 1 mps 636 mmHg 58%
    09:00 +20°C° 0 mm 2 mps 637 mmHg 48%
    10:00 +21°C° 0 mm 2 mps 637 mmHg 46%
    11:00 +21°C° 0 mm 3 mps 638 mmHg 44%
    12:00 +22°C° 0 mm 4 mps 638 mmHg 42%
    13:00 +22°C° 0 mm 3 mps 637 mmHg 42%
    14:00 +22°C° 0 mm 3 mps 637 mmHg 43%
    15:00 +22°C° 0 mm 3 mps 636 mmHg 43%
    16:00 +20°C° 0 mm 3 mps 636 mmHg 49%
    17:00 +18°C° 0 mm 2 mps 636 mmHg 55%
    18:00 +16°C° 0 mm 2 mps 635 mmHg 60%
    19:00 +16°C° 0 mm 2 mps 635 mmHg 59%
    20:00 +16°C° 0 mm 1 mps 635 mmHg 58%
    21:00 +15°C° 0 mm 1 mps 635 mmHg 57%
    22:00 +15°C° 0 mm 1 mps 635 mmHg 56%
    23:00 +15°C° 0 mm 1 mps 635 mmHg 56%

    Tomorrow, 19 September, Thursday

    Time Temperature Precipitation Wind Pressure Humidity
    00:00 +15°C° 0 mm 1 mps 635 mmHg 55%
    01:00 +15°C° 0 mm 1 mps 634 mmHg 55%
    02:00 +15°C° 0 mm 1 mps 634 mmHg 54%
    03:00 +15°C° 0 mm 1 mps 634 mmHg 54%
    04:00 +15°C° 0 mm 1 mps 634 mmHg 54%
    05:00 +15°C° 0 mm 1 mps 634 mmHg 55%
    06:00 +14°C° 0 mm 1 mps 634 mmHg 55%
    07:00 +18°C° 0 mm 1 mps 635 mmHg 49%
    08:00 +20°C° 0 mm 1 mps 636 mmHg 42%
    09:00 +23°C° 0 mm 1 mps 637 mmHg 36%
    10:00 +23°C° 0 mm 2 mps 637 mmHg 35%
    11:00 +24°C° 0 mm 2 mps 638 mmHg 35%
    12:00 +25°C° 0 mm 3 mps 638 mmHg 34%
    13:00 +25°C° 0 mm 3 mps 638 mmHg 36%
    14:00 +24°C° 0 mm 3 mps 637 mmHg 38%
    15:00 +23°C° 0 mm 4 mps 637 mmHg 40%
    16:00 +21°C° 0 mm 3 mps 637 mmHg 47%
    17:00 +18°C° 0 mm 3 mps 636 mmHg 54%
    18:00 +16°C° 0 mm 3 mps 636 mmHg 61%
    19:00 +15°C° 0 mm 2 mps 636 mmHg 66%
    20:00 +14°C° 0 mm 2 mps 636 mmHg 72%
    21:00 +13°C° 0 mm 1 mps 636 mmHg 77%
    22:00 +13°C° 0 mm 1 mps 635 mmHg 78%
    23:00 +13°C° 0 mm 1 mps 635 mmHg 80%

    Day after tomorrow, 20 September, Friday

    Time Temperature Precipitation Wind Pressure Humidity
    00:00 +13°C° 0 mm 1 mps 635 mmHg 81%
    01:00 +12°C° 0 mm 1 mps 635 mmHg 83%
    02:00 +11°C° 0 mm 0 mps 635 mmHg 85%
    03:00 +11°C° 0 mm 0 mps 634 mmHg 87%
    04:00 +11°C° 0 mm 0 mps 634 mmHg 87%
    05:00 +12°C° 0 mm 1 mps 634 mmHg 87%
    06:00 +12°C° 0 mm 1 mps 634 mmHg 87%
    07:00 +13°C° 0.1 mm 1 mps 635 mmHg 83%
    08:00 +15°C° 0.1 mm 2 mps 635 mmHg 79%
    09:00 +16°C° 0.1 mm 2 mps 635 mmHg 74%
    10:00 +17°C° 0 mm 2 mps 635 mmHg 71%
    11:00 +18°C° 0 mm 2 mps 635 mmHg 68%
    12:00 +19°C° 0 mm 2 mps 635 mmHg 65%
    13:00 +19°C° 0 mm 2 mps 634 mmHg 63%
    14:00 +19°C° 0 mm 2 mps 634 mmHg 62%
    15:00 +20°C° 0 mm 2 mps 633 mmHg 60%
    16:00 +20°C° 0 mm 1 mps 633 mmHg 63%
    17:00 +19°C° 0 mm 1 mps 632 mmHg 65%
    18:00 +18°C° 0 mm 1 mps 631 mmHg 67%
    19:00 +16°C° 0 mm 1 mps 631 mmHg 64%
    20:00 +16°C° 0 mm 1 mps 631 mmHg 61%
    21:00 +16°C° 0 mm 1 mps 631 mmHg 59%
    22:00 +16°C° 0 mm 1 mps 631 mmHg 55%
    23:00 +16°C° 0 mm 1 mps 631 mmHg 52%

    21 September, Saturday

    Time Temperature Precipitation Wind Pressure Humidity
    00:00 +16°C° 0 mm 1 mps 631 mmHg 48%
    01:00 +16°C° 0 mm 2 mps 630 mmHg 47%
    02:00 +16°C° 0 mm 2 mps 630 mmHg 45%
    03:00 +16°C° 0 mm 2 mps 630 mmHg 44%
    04:00 +16°C° 0 mm 2 mps 630 mmHg 43%
    05:00 +16°C° 0 mm 2 mps 630 mmHg 43%
    06:00 +16°C° 0 mm 2 mps 630 mmHg 42%
    07:00 +19°C° 0 mm 2 mps 631 mmHg 39%
    08:00 +21°C° 0 mm 3 mps 632 mmHg 37%
    09:00 +25°C° 0 mm 4 mps 633 mmHg 34%
    10:00 +25°C° 0 mm 4 mps 633 mmHg 35%
    11:00 +25°C° 0 mm 5 mps 633 mmHg 37%
    12:00 +26°C° 0 mm 5 mps 632 mmHg 38%
    13:00 +22°C° 0.1 mm 5 mps 631 mmHg 51%
    14:00 +19°C° 0.1 mm 5 mps 630 mmHg 64%
    15:00 +15°C° 0.1 mm 5 mps 629 mmHg 77%
    16:00 +13°C° 0.1 mm 4 mps 629 mmHg 82%
    17:00 +12°C° 0.1 mm 4 mps 629 mmHg 87%
    18:00 +11°C° 0.1 mm 4 mps 629 mmHg 92%
    19:00 +11°C° 0.4 mm 4 mps 630 mmHg 92%
    20:00 +11°C° 0.4 mm 4 mps 631 mmHg 92%
    21:00 +10°C° 0.4 mm 4 mps 632 mmHg 92%
    22:00 +10°C° 0.9 mm 4 mps 633 mmHg 92%
    23:00 +10°C° 0.9 mm 4 mps 633 mmHg 92%

    22 September, Sunday

    Time Temperature Precipitation Wind Pressure Humidity
    00:00 +8°C° 0.9 mm 4 mps 634 mmHg 92%
    01:00 +8°C° 0.1 mm 4 mps 634 mmHg 84%
    02:00 +8°C° 0.1 mm 3 mps 634 mmHg 76%
    03:00 +7°C° 0.1 mm 3 mps 634 mmHg 68%
    04:00 +7°C° 0 mm 3 mps 635 mmHg 64%
    05:00 +7°C° 0 mm 3 mps 635 mmHg 61%
    06:00 +6°C° 0 mm 2 mps 636 mmHg 58%
    07:00 +7°C° 0 mm 2 mps 637 mmHg 54%
    08:00 +9°C° 0 mm 3 mps 638 mmHg 49%
    09:00 +10°C° 0 mm 3 mps 639 mmHg 44%
    10:00 +11°C° 0 mm 3 mps 639 mmHg 44%
    11:00 +11°C° 0 mm 4 mps 638 mmHg 43%
    12:00 +12°C° 0 mm 4 mps 638 mmHg 43%
    13:00 +12°C° 0 mm 4 mps 638 mmHg 48%
    14:00 +11°C° 0 mm 4 mps 637 mmHg 53%
    15:00 +11°C° 0 mm 4 mps 636 mmHg 58%
    16:00 +10°C° 0 mm 3 mps 636 mmHg 68%
    17:00 +9°C° 0 mm 3 mps 635 mmHg 77%
    18:00 +8°C° 0 mm 2 mps 634 mmHg 87%
    19:00 +8°C° 0 mm 2 mps 634 mmHg 88%
    20:00 +9°C° 0 mm 1 mps 635 mmHg 89%
    21:00 +9°C° 0 mm 1 mps 635 mmHg 89%
    22:00 +9°C° 0 mm 1 mps 635 mmHg 89%
    23:00 +9°C° 0 mm 1 mps 634 mmHg 88%

    23 September, Monday

    Time Temperature Precipitation Wind Pressure Humidity
    00:00 +8°C° 0 mm 0 mps 634 mmHg 87%
    01:00 +8°C° 0 mm 0 mps 634 mmHg 86%
    02:00 +8°C° 0 mm 0 mps 634 mmHg 84%
    03:00 +9°C° 0 mm 1 mps 634 mmHg 83%
    04:00 +9°C° 0 mm 1 mps 635 mmHg 82%
    05:00 +8°C° 0 mm 0 mps 635 mmHg 81%
    06:00 +8°C° 0 mm 0 mps 635 mmHg 81%
    07:00 +10°C° 0 mm 1 mps 635 mmHg 77%
    08:00 +11°C° 0 mm 1 mps 636 mmHg 74%
    09:00 +11°C° 0 mm 1 mps 636 mmHg 71%
    10:00 +12°C° 0 mm 2 mps 636 mmHg 69%
    11:00 +13°C° 0 mm 2 mps 636 mmHg 66%
    12:00 +13°C° 0 mm 3 mps 637 mmHg 64%
    13:00 +12°C° 0 mm 3 mps 636 mmHg 65%
    14:00 +12°C° 0 mm 3 mps 636 mmHg 67%
    15:00 +12°C° 0 mm 3 mps 635 mmHg 69%
    16:00 +11°C° 0 mm 3 mps 635 mmHg 76%
    17:00 +10°C° 0 mm 2 mps 635 mmHg 82%
    18:00 +9°C° 0 mm 2 mps 635 mmHg 88%
    19:00 +10°C° 0.1 mm 2 mps 635 mmHg 90%
    20:00 +10°C° 0.1 mm 2 mps 636 mmHg 91%
    21:00 +10°C° 0.1 mm 2 mps 636 mmHg 92%
    22:00 +10°C° 0 mm 2 mps 636 mmHg 93%
    23:00 +10°C° 0 mm 2 mps 636 mmHg 93%
    Show more